#timestamp,LO_Frequency,Hit,StdDev 
1512496815.1,286047002.6,N
1512496816.0,286047002.6,N
1512496835.8,286047004.6,N
1512496855.6,286047001.8,N
1512496875.5,286046998.1,N
1512496895.3,286046995.3,N
1512496915.1,286046999.8,N
1512496935.9,286046999.7,N
1512496955.7,286047000.0,N
1512496975.5,286047000.8,N
1512496995.4,286046998.7,N
1512497015.2,286046999.9,N
1512497035.0,286046998.5,N
1512497035.9,286046998.5,N
1512497055.8,286047000.6,N
1512497075.6,286046997.7,N
1512497095.4,286046997.8,N
1512497115.3,286046992.1,N
1512497135.1,286046998.0,N
1512497136.0,286046998.0,N
1512497155.8,286046999.3,N
1512497175.7,286046998.8,N
1512497195.5,286046995.0,N
1512497215.3,286046992.8,N
1512497235.2,286046990.2,Y
1512497255.9,286046993.9,P
1512497275.7,286046993.4,N
1512497295.6,286046994.1,N
1512497315.4,286046990.2,Y
1512497335.2,286046998.6,P
1512497355.1,286047002.3,N
1512497356.0,286047002.3,N
1512497375.8,286047004.3,N
1512497395.6,286047003.7,N
1512497415.5,286047004.3,N
1512497435.3,286047002.9,N
1512497455.1,286047002.1,N
1512497475.8,286047003.7,N
1512497495.7,286047005.9,N
1512497515.5,286047006.0,N
1512497535.3,286047003.8,N
1512497555.2,286047002.5,N
1512497575.9,286046999.7,N
1512497595.7,286047001.7,N
1512497615.6,286047006.0,N
1512497635.4,286047003.1,N
1512497655.2,286047003.0,N
1512497675.1,286047000.6,N
1512497676.0,286047000.6,N
1512497695.8,286046999.0,N
1512497715.6,286047004.1,N
1512497735.5,286046993.5,N
1512497755.3,286046997.7,N
1512497775.1,286046995.7,N
1512497795.8,286046997.8,N
1512497815.7,286046997.6,N
1512497835.5,286046995.2,N
1512497855.3,286046995.4,N
1512497875.2,286046992.0,N
1512497895.9,286046987.0,Y
1512497915.7,286046986.0,P
1512497935.6,286046986.3,N
1512497955.4,286046985.4,N
1512497975.2,286046991.6,N
1512497995.1,286046986.6,N
1512497996.0,286046986.6,N
1512498015.8,286046986.6,N
1512498035.6,286046986.3,N
1512498055.5,286046983.8,Y
1512498075.3,286046996.2,P
1512498095.1,286046990.9,N
1512498115.9,286046986.9,P
1512498135.7,286046991.5,N
1512498155.5,286046992.2,N
1512498175.4,286046990.6,Y
1512498195.2,286047000.9,P
1512498215.0,286047001.3,N
1512498215.9,286047001.3,N
1512498235.8,286047005.0,N
1512498255.6,286047005.0,N
1512498275.4,286047006.0,N
1512498295.2,286047002.6,N
1512498315.1,286046998.8,N
1512498316.0,286046998.8,N
1512498335.8,286047001.7,N
1512498355.6,286047004.6,N
1512498375.5,286047010.8,N
1512498395.3,286047007.2,N
1512498415.1,286047007.0,N
1512498435.9,286047007.8,N
1512498455.7,286047007.7,N
1512498475.5,286047013.9,Y
1512498495.4,286047008.6,P
1512498515.2,286047009.1,P
1512498535.0,286047004.7,N
1512498535.9,286047004.7,N
1512498555.8,286047009.2,Y
1512498575.6,286046998.1,P
1512498595.4,286046997.7,N
1512498615.3,286047000.6,N
1512498635.1,286047006.2,N
1512498636.0,286047006.2,N
1512498655.8,286047005.6,N
1512498675.7,286047005.9,N
1512498695.5,286047003.3,N
1512498715.3,286046999.9,N
1512498735.2,286046997.0,N
1512498755.9,286046998.6,N
1512498775.7,286046998.8,N
1512498795.5,286046999.6,N
1512498815.4,286046997.6,N
1512498835.2,286046997.6,N
1512498855.0,286046994.8,N
1512498855.9,286046994.8,N
1512498875.8,286046992.2,N
1512498895.6,286046993.3,N
1512498915.4,286046994.1,N
1512498935.3,286046995.9,N
1512498955.1,286046996.0,N
1512498956.0,286046996.0,N
1512498975.8,286046994.6,N
1512498995.7,286046994.2,N
1512499015.5,286046997.1,N
1512499035.3,286046993.3,N
1512499055.1,286046995.3,N
1512499075.9,286046996.6,N
1512499095.7,286047003.9,N
1512499115.5,286047007.6,N
1512499135.4,286047006.9,N
1512499155.2,286047006.9,N
1512499175.0,286047005.1,N
1512499175.9,286047005.1,N
1512499195.8,286047003.5,N
1512499215.6,286047003.5,N
1512499235.4,286047007.0,N
1512499255.3,286047005.6,N
1512499275.1,286047004.2,N
1512499276.0,286047004.2,N
1512499295.8,286047000.0,N
1512499315.7,286047000.9,N
1512499335.5,286046996.2,N
1512499355.3,286046996.6,N
1512499375.2,286046995.3,N
1512499395.9,286046999.5,N
1512499415.7,286047002.1,N
1512499435.6,286047001.2,N
1512499455.4,286047000.9,N
1512499475.2,286046998.4,N
1512499495.0,286046996.6,N
1512499495.9,286046996.6,N
1512499515.8,286046994.9,N
1512499535.6,286047000.0,N
1512499555.4,286046999.5,N
1512499575.3,286046997.6,N
1512499595.1,286046999.7,N
1512499615.8,286047000.5,N
1512499635.7,286046997.5,N
1512499655.5,286046996.1,N
1512499675.3,286047000.2,N
1512499695.2,286046998.3,N
1512499715.9,286046999.1,N
1512499735.7,286046999.1,N
1512499755.6,286046995.4,N
1512499775.4,286046993.3,N
1512499795.2,286046991.6,N
1512499815.1,286046996.3,N
1512499816.0,286046996.3,N
1512499835.8,286046996.1,N
1512499855.6,286046993.4,N
1512499875.4,286046994.7,N
1512499895.3,286046992.2,Y
1512499915.1,286046993.9,P
1512499935.9,286046994.6,P
1512499955.7,286046994.3,P
1512499975.5,286046991.4,Y
1512499995.4,286046994.8,P
1512500015.2,286046992.0,P
1512500035.0,286046999.4,N
1512500035.9,286046999.4,N
1512500055.8,286046995.8,N
1512500075.6,286047002.0,N
1512500095.4,286047002.7,N
1512500115.2,286047001.5,N
1512500135.1,286047001.0,N
1512500136.0,286047001.0,N
1512500155.8,286047001.0,N
1512500175.6,286046999.7,N
1512500195.5,286046999.0,N
1512500215.3,286047003.1,N
1512500235.1,286047005.3,N
1512500255.9,286047002.9,N
1512500275.7,286047004.8,N
1512500295.5,286047006.5,N
1512500315.4,286047012.2,Y
1512500335.2,286047006.1,P
1512500355.0,286047004.2,N
1512500355.9,286047004.2,N
1512500375.8,286047002.1,N
1512500395.6,286046996.8,N
